Time,TemperatureF,DewpointF,PressureIn,WindDirection,WindDirectionDegrees,WindSpeedMPH,WindSpeedGustMPH,Humidity,HourlyPrecipIn,Conditions,Clouds,dailyrainin,SoftwareType,DateUTC
2013-09-13 00:01:00,53.0,47.0,30.32,North,354,0.0,0.0,81,0.00,,,0.00,weatherlink.com 1.10,2013-09-13 05:01:00,
2013-09-13 00:17:00,52.3,47.0,30.32,North,354,0.0,0.0,83,0.00,,,0.00,weatherlink.com 1.10,2013-09-13 05:17:00,
2013-09-13 00:32:00,51.8,47.0,30.32,North,354,0.0,0.0,83,0.00,,,0.00,weatherlink.com 1.10,2013-09-13 05:32:00,
2013-09-13 00:47:00,51.4,47.0,30.32,North,354,0.0,0.0,85,0.00,,,0.00,weatherlink.com 1.10,2013-09-13 05:47:00,
2013-09-13 01:02:00,51.1,47.0,30.32,North,354,0.0,0.0,86,0.00,,,0.00,weatherlink.com 1.10,2013-09-13 06:02:00,
2013-09-13 01:17:00,50.7,47.0,30.32,North,352,0.0,0.0,86,0.00,,,0.00,weatherlink.com 1.10,2013-09-13 06:17:00,
2013-09-13 01:32:00,50.6,47.0,30.32,North,352,0.0,0.0,87,0.00,,,0.00,weatherlink.com 1.10,2013-09-13 06:32:00,
2013-09-13 01:47:00,50.3,47.0,30.32,WNW,284,0.0,0.0,87,0.00,,,0.00,weatherlink.com 1.10,2013-09-13 06:47:00,
2013-09-13 02:02:00,49.8,46.0,30.32,WNW,284,0.0,0.0,88,0.00,,,0.00,weatherlink.com 1.10,2013-09-13 07:02:00,
2013-09-13 02:17:00,49.0,46.0,30.32,WNW,284,0.0,0.0,88,0.00,,,0.00,weatherlink.com 1.10,2013-09-13 07:17:00,
2013-09-13 02:32:00,47.7,44.0,30.32,WNW,284,0.0,0.0,87,0.00,,,0.00,weatherlink.com 1.10,2013-09-13 07:32:00,
2013-09-13 02:47:00,46.3,43.0,30.32,WNW,283,0.0,0.0,89,0.00,,,0.00,weatherlink.com 1.10,2013-09-13 07:47:00,
2013-09-13 03:02:00,46.5,44.0,30.31,WNW,284,0.0,0.0,91,0.00,,,0.00,weatherlink.com 1.10,2013-09-13 08:02:00,
2013-09-13 03:17:00,47.3,45.0,30.31,WNW,284,0.0,0.0,92,0.00,,,0.00,weatherlink.com 1.10,2013-09-13 08:17:00,
2013-09-13 03:32:00,47.4,45.0,30.31,WNW,283,0.0,0.0,92,0.00,,,0.00,weatherlink.com 1.10,2013-09-13 08:32:00,
2013-09-13 03:47:00,47.6,45.0,30.31,WNW,284,0.0,0.0,92,0.00,,,0.00,weatherlink.com 1.10,2013-09-13 08:47:00,
2013-09-13 04:02:00,47.7,46.0,30.31,WNW,284,0.0,0.0,92,0.00,,,0.00,weatherlink.com 1.10,2013-09-13 09:02:00,
2013-09-13 04:17:00,48.3,46.0,30.31,WNW,284,0.0,0.0,92,0.00,,,0.00,weatherlink.com 1.10,2013-09-13 09:17:00,
2013-09-13 04:32:00,48.1,46.0,30.31,WSW,257,0.0,0.0,92,0.00,,,0.00,weatherlink.com 1.10,2013-09-13 09:32:00,
2013-09-13 04:47:00,48.7,47.0,30.31,SSW,200,0.0,1.0,92,0.00,,,0.00,weatherlink.com 1.10,2013-09-13 09:47:00,
2013-09-13 05:02:00,48.4,46.0,30.31,SSW,200,0.0,0.0,92,0.00,,,0.00,weatherlink.com 1.10,2013-09-13 10:02:00,
2013-09-13 05:17:00,48.3,46.0,30.31,SSW,200,0.0,0.0,91,0.00,,,0.00,weatherlink.com 1.10,2013-09-13 10:17:00,
2013-09-13 05:32:00,47.4,45.0,30.31,SSW,200,0.0,0.0,91,0.00,,,0.00,weatherlink.com 1.10,2013-09-13 10:32:00,
2013-09-13 05:47:00,47.4,45.0,30.31,SSW,200,0.0,0.0,91,0.00,,,0.00,weatherlink.com 1.10,2013-09-13 10:47:00,
2013-09-13 06:02:00,47.7,46.0,30.31,SSW,200,0.0,0.0,92,0.00,,,0.00,weatherlink.com 1.10,2013-09-13 11:02:00,
2013-09-13 06:17:00,46.9,45.0,30.30,SSW,200,0.0,0.0,91,0.00,,,0.00,weatherlink.com 1.10,2013-09-13 11:17:00,
2013-09-13 06:32:00,46.2,44.0,30.30,SSW,200,0.0,0.0,91,0.00,,,0.00,weatherlink.com 1.10,2013-09-13 11:32:00,
2013-09-13 06:47:00,46.2,44.0,30.30,SSW,200,0.0,0.0,92,0.00,,,0.00,weatherlink.com 1.10,2013-09-13 11:47:00,
2013-09-13 07:02:00,46.8,45.0,30.31,SSW,200,0.0,0.0,92,0.00,,,0.00,weatherlink.com 1.10,2013-09-13 12:02:00,
2013-09-13 07:17:00,47.5,45.0,30.30,South,177,0.0,1.0,92,0.00,,,0.00,weatherlink.com 1.10,2013-09-13 12:17:00,
2013-09-13 07:32:00,46.6,44.0,30.31,South,177,0.0,0.0,90,0.00,,,0.00,weatherlink.com 1.10,2013-09-13 12:32:00,
2013-09-13 07:47:00,47.7,45.0,30.30,South,178,0.0,0.0,91,0.00,,,0.00,weatherlink.com 1.10,2013-09-13 12:47:00,
2013-09-13 08:02:00,49.4,47.0,30.30,SSE,153,0.0,1.0,91,0.00,,,0.00,weatherlink.com 1.10,2013-09-13 13:02:00,
2013-09-13 08:17:00,50.6,48.0,30.30,SSW,193,0.0,1.0,89,0.00,,,0.00,weatherlink.com 1.10,2013-09-13 13:17:00,
2013-09-13 08:32:00,51.9,48.0,30.29,SSW,192,0.0,1.0,87,0.00,,,0.00,weatherlink.com 1.10,2013-09-13 13:32:00,
2013-09-13 08:47:00,53.0,49.0,30.29,SSE,159,0.0,1.0,86,0.00,,,0.00,weatherlink.com 1.10,2013-09-13 13:47:00,
2013-09-13 09:02:00,54.2,50.0,30.29,SW,214,0.0,1.0,84,0.00,,,0.00,weatherlink.com 1.10,2013-09-13 14:02:00,
2013-09-13 09:17:00,56.2,50.0,30.29,South,178,0.0,2.0,81,0.00,,,0.00,weatherlink.com 1.10,2013-09-13 14:17:00,
2013-09-13 09:32:00,57.7,51.0,30.29,South,190,0.0,3.0,77,0.00,,,0.00,weatherlink.com 1.10,2013-09-13 14:32:00,
2013-09-13 09:47:00,58.6,51.0,30.28,South,180,1.0,3.0,75,0.00,,,0.00,weatherlink.com 1.10,2013-09-13 14:47:00,
2013-09-13 10:02:00,59.6,51.0,30.29,South,181,2.0,3.0,73,0.00,,,0.00,weatherlink.com 1.10,2013-09-13 15:02:00,
2013-09-13 10:18:00,60.8,52.0,30.29,SSW,210,1.0,3.0,72,0.00,,,0.00,weatherlink.com 1.10,2013-09-13 15:18:00,
2013-09-13 10:33:00,62.1,52.0,30.28,South,191,2.0,3.0,70,0.00,,,0.00,weatherlink.com 1.10,2013-09-13 15:33:00,
2013-09-13 10:48:00,63.3,52.0,30.28,SE,125,0.0,3.0,67,0.00,,,0.00,weatherlink.com 1.10,2013-09-13 15:48:00,
2013-09-13 11:03:00,64.7,52.0,30.27,ESE,102,1.0,3.0,64,0.00,,,0.00,weatherlink.com 1.10,2013-09-13 16:03:00,
2013-09-13 11:18:00,65.9,52.0,30.27,SSW,205,1.0,4.0,61,0.00,,,0.00,weatherlink.com 1.10,2013-09-13 16:18:00,
2013-09-13 11:33:00,66.4,51.0,30.27,SSW,207,0.0,5.0,59,0.00,,,0.00,weatherlink.com 1.10,2013-09-13 16:33:00,
2013-09-13 11:48:00,67.5,52.0,30.26,SSW,197,2.0,3.0,59,0.00,,,0.00,weatherlink.com 1.10,2013-09-13 16:48:00,
2013-09-13 12:03:00,68.6,53.0,30.25,SSW,197,3.0,3.0,58,0.00,,,0.00,weatherlink.com 1.10,2013-09-13 17:03:00,
2013-09-13 12:18:00,69.4,52.0,30.25,SSW,195,1.0,4.0,54,0.00,,,0.00,weatherlink.com 1.10,2013-09-13 17:18:00,
2013-09-13 12:33:00,69.8,52.0,30.24,South,188,0.0,4.0,54,0.00,,,0.00,weatherlink.com 1.10,2013-09-13 17:33:00,
2013-09-13 12:48:00,70.6,52.0,30.23,SSW,210,0.0,4.0,53,0.00,,,0.00,weatherlink.com 1.10,2013-09-13 17:48:00,
2013-09-13 13:03:00,71.4,52.0,30.23,SSE,150,0.0,4.0,50,0.00,,,0.00,weatherlink.com 1.10,2013-09-13 18:03:00,
2013-09-13 13:18:00,71.1,52.0,30.22,SSE,154,3.0,5.0,51,0.00,,,0.00,weatherlink.com 1.10,2013-09-13 18:18:00,
2013-09-13 13:33:00,71.1,51.0,30.21,South,189,3.0,5.0,49,0.00,,,0.00,weatherlink.com 1.10,2013-09-13 18:33:00,
2013-09-13 13:48:00,71.3,52.0,30.20,ESE,103,3.0,7.0,50,0.00,,,0.00,weatherlink.com 1.10,2013-09-13 18:48:00,
2013-09-13 14:03:00,71.6,51.0,30.19,SSW,207,3.0,6.0,48,0.00,,,0.00,weatherlink.com 1.10,2013-09-13 19:03:00,
2013-09-13 14:18:00,71.7,51.0,30.19,SSW,205,3.0,6.0,48,0.00,,,0.00,weatherlink.com 1.10,2013-09-13 19:18:00,
2013-09-13 14:33:00,72.1,51.0,30.18,ESE,121,0.0,6.0,48,0.00,,,0.00,weatherlink.com 1.10,2013-09-13 19:33:00,
2013-09-13 14:48:00,72.6,50.0,30.17,South,173,2.0,5.0,45,0.00,,,0.00,weatherlink.com 1.10,2013-09-13 19:48:00,
2013-09-13 15:03:00,72.6,50.0,30.16,SSW,208,2.0,6.0,45,0.00,,,0.00,weatherlink.com 1.10,2013-09-13 20:03:00,
2013-09-13 15:19:00,73.1,50.0,30.16,SSW,205,1.0,7.0,44,0.00,,,0.00,weatherlink.com 1.10,2013-09-13 20:19:00,
2013-09-13 15:34:00,73.2,49.0,30.15,WSW,242,3.0,6.0,43,0.00,,,0.00,weatherlink.com 1.10,2013-09-13 20:34:00,
2013-09-13 15:49:00,73.4,49.0,30.14,SSW,208,2.0,5.0,43,0.00,,,0.00,weatherlink.com 1.10,2013-09-13 20:49:00,
2013-09-13 16:04:00,73.6,50.0,30.14,SSW,205,1.0,5.0,43,0.00,,,0.00,weatherlink.com 1.10,2013-09-13 21:04:00,
2013-09-13 16:19:00,73.9,51.0,30.13,East,92,0.0,5.0,45,0.00,,,0.00,weatherlink.com 1.10,2013-09-13 21:19:00,
2013-09-13 16:34:00,73.8,50.0,30.13,SSW,205,3.0,4.0,43,0.00,,,0.00,weatherlink.com 1.10,2013-09-13 21:34:00,
2013-09-13 16:49:00,74.1,50.0,30.12,SSW,207,3.0,4.0,43,0.00,,,0.00,weatherlink.com 1.10,2013-09-13 21:49:00,
2013-09-13 17:04:00,74.0,50.0,30.12,South,173,0.0,6.0,43,0.00,,,0.00,weatherlink.com 1.10,2013-09-13 22:04:00,
2013-09-13 17:19:00,74.1,51.0,30.11,SSE,167,3.0,5.0,44,0.00,,,0.00,weatherlink.com 1.10,2013-09-13 22:19:00,
2013-09-13 17:34:00,74.0,51.0,30.11,SSE,167,3.0,4.0,44,0.00,,,0.00,weatherlink.com 1.10,2013-09-13 22:34:00,
2013-09-13 17:49:00,73.9,51.0,30.10,SSE,157,1.0,4.0,44,0.00,,,0.00,weatherlink.com 1.10,2013-09-13 22:49:00,
2013-09-13 18:04:00,73.8,50.0,30.09,South,184,1.0,5.0,43,0.00,,,0.00,weatherlink.com 1.10,2013-09-13 23:04:00,
2013-09-13 18:19:00,73.7,50.0,30.09,ESE,117,1.0,4.0,44,0.00,,,0.00,weatherlink.com 1.10,2013-09-13 23:19:00,
2013-09-13 18:34:00,73.5,51.0,30.08,SSE,167,0.0,3.0,45,0.00,,,0.00,weatherlink.com 1.10,2013-09-13 23:34:00,
2013-09-13 18:49:00,72.6,49.0,30.08,SW,218,1.0,4.0,44,0.00,,,0.00,weatherlink.com 1.10,2013-09-13 23:49:00,
2013-09-13 19:04:00,72.2,50.0,30.07,South,172,0.0,3.0,45,0.00,,,0.00,weatherlink.com 1.10,2013-09-14 00:04:00,
2013-09-13 19:19:00,71.0,50.0,30.07,South,170,0.0,2.0,47,0.00,,,0.00,weatherlink.com 1.10,2013-09-14 00:19:00,
2013-09-13 19:34:00,69.3,50.0,30.06,SE,139,0.0,2.0,50,0.00,,,0.00,weatherlink.com 1.10,2013-09-14 00:34:00,
2013-09-13 19:49:00,67.2,50.0,30.06,South,177,0.0,1.0,54,0.00,,,0.00,weatherlink.com 1.10,2013-09-14 00:49:00,
2013-09-13 20:04:00,66.7,50.0,30.06,South,174,0.0,2.0,55,0.00,,,0.00,weatherlink.com 1.10,2013-09-14 01:04:00,
2013-09-13 20:19:00,66.1,50.0,30.06,SSE,155,0.0,2.0,56,0.00,,,0.00,weatherlink.com 1.10,2013-09-14 01:19:00,
2013-09-13 20:34:00,65.6,49.0,30.06,SSE,152,0.0,2.0,56,0.00,,,0.00,weatherlink.com 1.10,2013-09-14 01:34:00,
2013-09-13 20:49:00,64.9,50.0,30.05,SSE,158,0.0,2.0,58,0.00,,,0.00,weatherlink.com 1.10,2013-09-14 01:49:00,
2013-09-13 21:04:00,64.2,49.0,30.05,SE,142,0.0,2.0,58,0.00,,,0.00,weatherlink.com 1.10,2013-09-14 02:04:00,
2013-09-13 21:19:00,63.6,49.0,30.05,SSE,149,0.0,1.0,59,0.00,,,0.00,weatherlink.com 1.10,2013-09-14 02:19:00,
2013-09-13 21:34:00,62.7,48.0,30.05,South,176,0.0,3.0,60,0.00,,,0.00,weatherlink.com 1.10,2013-09-14 02:34:00,
2013-09-13 21:49:00,62.5,48.0,30.05,South,177,0.0,3.0,60,0.00,,,0.00,weatherlink.com 1.10,2013-09-14 02:49:00,
2013-09-13 22:04:00,62.2,48.0,30.05,SSW,197,1.0,4.0,60,0.00,,,0.00,weatherlink.com 1.10,2013-09-14 03:04:00,
2013-09-13 22:19:00,61.9,48.0,30.05,SE,146,0.0,3.0,60,0.00,,,0.00,weatherlink.com 1.10,2013-09-14 03:19:00,
2013-09-13 22:34:00,61.2,48.0,30.05,SSE,162,1.0,3.0,62,0.00,,,0.00,weatherlink.com 1.10,2013-09-14 03:34:00,
2013-09-13 22:49:00,60.4,48.0,30.04,SSE,148,0.0,3.0,63,0.00,,,0.00,weatherlink.com 1.10,2013-09-14 03:49:00,
2013-09-13 23:04:00,59.8,47.0,30.04,SSE,153,0.0,4.0,64,0.00,,,0.00,weatherlink.com 1.10,2013-09-14 04:04:00,
2013-09-13 23:19:00,59.9,48.0,30.04,SW,215,2.0,4.0,64,0.00,,,0.00,weatherlink.com 1.10,2013-09-14 04:19:00,
2013-09-13 23:34:00,60.5,47.0,30.03,SSE,166,0.0,5.0,62,0.00,,,0.00,weatherlink.com 1.10,2013-09-14 04:34:00,
2013-09-13 23:49:00,60.6,47.0,30.03,SE,129,0.0,6.0,62,0.00,,,0.00,weatherlink.com 1.10,2013-09-14 04:49:00,